Location: Byszew
(52.1813°N, 19.2693°E)
Time: 02:28:15
(UTC+00:00)

Envisat - Pass Details

Date: 30 January 2022
Orbit: 764 x 765 km, 98.2° (Epoch: 28 May)

Event Time Altitude Azimuth Distance (km) Brightness Sun altitude
Rises 05:07:21 0° 7° (N) 3,244 6.2 -12.2°
Reaches altitude 10° 05:09:58 10° 355° (N) 2,314 5.3 -11.8°
Maximum altitude 05:14:07 26° 301° (WNW) 1,481 3.9 -11.2°
Drops below altitude 10° 05:18:15 10° 246° (WSW) 2,302 5.0 -10.6°
Sets 05:20:52 0° 234° (SW) 3,225 5.9 -10.2°
